TimeEDT,TemperatureF,Dew PointF,Humidity,Sea Level PressureIn,VisibilityMPH,Wind Direction,Wind SpeedMPH,Gust SpeedMPH,PrecipitationIn,Events,Conditions,WindDirDegrees,DateUTC
12:53 AM,62.1,57.9,86,30.05,10.0,SSE,5.8,-,N/A,,Clear,160,2013-09-19 04:53:00
1:53 AM,62.1,59.0,90,30.05,9.0,South,3.5,-,N/A,,Mostly Cloudy,180,2013-09-19 05:53:00
2:53 AM,64.9,61.0,87,30.05,10.0,SSW,5.8,-,N/A,,Overcast,200,2013-09-19 06:53:00
3:53 AM,64.0,61.0,90,30.04,8.0,South,5.8,-,N/A,,Overcast,180,2013-09-19 07:53:00
4:53 AM,63.0,61.0,93,30.03,7.0,South,4.6,-,N/A,,Partly Cloudy,180,2013-09-19 08:53:00
5:53 AM,63.0,61.0,93,30.02,5.0,South,5.8,-,N/A,,Clear,190,2013-09-19 09:53:00
6:53 AM,63.0,61.0,93,30.04,4.0,Calm,Calm,-,N/A,,Clear,0,2013-09-19 10:53:00
7:53 AM,63.0,61.0,93,30.05,3.0,Calm,Calm,-,N/A,,Clear,0,2013-09-19 11:53:00
8:53 AM,66.9,63.0,87,30.06,5.0,SW,10.4,-,N/A,,Clear,230,2013-09-19 12:53:00
9:53 AM,71.1,64.0,78,30.04,6.0,SW,5.8,-,N/A,,Haze,220,2013-09-19 13:53:00
10:53 AM,73.0,64.9,76,30.04,7.0,South,10.4,-,N/A,,Scattered Clouds,190,2013-09-19 14:53:00
11:02 AM,73.4,64.4,73,30.04,7.0,SSW,10.4,-,N/A,,Mostly Cloudy,200,2013-09-19 15:02:00
11:22 AM,73.4,64.4,73,30.03,7.0,South,8.1,-,N/A,,Mostly Cloudy,190,2013-09-19 15:22:00
11:53 AM,73.9,64.9,73,30.03,8.0,SW,8.1,-,N/A,,Partly Cloudy,230,2013-09-19 15:53:00
12:53 PM,77.0,64.9,66,30.02,9.0,South,10.4,-,N/A,,Partly Cloudy,180,2013-09-19 16:53:00
1:53 PM,77.0,66.0,69,30.00,8.0,South,9.2,-,N/A,,Partly Cloudy,180,2013-09-19 17:53:00
2:53 PM,75.9,64.9,69,29.99,8.0,SSW,11.5,-,N/A,,Partly Cloudy,200,2013-09-19 18:53:00
3:53 PM,78.1,66.0,66,29.98,9.0,South,9.2,-,N/A,,Scattered Clouds,190,2013-09-19 19:53:00
4:53 PM,77.0,64.9,66,29.98,9.0,South,12.7,-,N/A,,Mostly Cloudy,190,2013-09-19 20:53:00
5:53 PM,75.9,64.9,69,29.96,9.0,South,10.4,-,N/A,,Clear,170,2013-09-19 21:53:00
6:53 PM,75.0,66.0,73,29.95,8.0,SSE,9.2,-,N/A,,Clear,160,2013-09-19 22:53:00
7:53 PM,73.0,64.9,76,29.94,8.0,SSE,8.1,-,N/A,,Clear,160,2013-09-19 23:53:00
8:53 PM,72.0,64.9,78,29.94,9.0,South,9.2,-,N/A,,Clear,170,2013-09-20 00:53:00
9:53 PM,72.0,64.9,78,29.95,10.0,South,10.4,-,N/A,,Clear,190,2013-09-20 01:53:00
10:53 PM,72.0,64.9,78,29.96,10.0,South,10.4,-,N/A,,Mostly Cloudy,190,2013-09-20 02:53:00
11:53 PM,70.0,66.0,87,29.95,9.0,South,6.9,-,0.01,Rain,Light Rain,180,2013-09-20 03:53:00